This is the latest recevied weather packets stored in our database for station/object IZ0VWB-3. If no packets are shown the sender has not sent any weather packets the latest 10 day(s).
| Time | Temp. | Humidity | Pressure | Rain* | Wind** | Luminosity | Snow |
|---|---|---|---|---|---|---|---|
| 1777552099 | 20° C | 46% | 1005.7 hPa | 0 mm | - | - | - |
| 1777551499 | 19.44° C | 47% | 1005.9 hPa | 0 mm | - | - | - |
| 1777550899 | 18.89° C | 47% | 1005.8 hPa | 0 mm | - | - | - |
| 1777550299 | 19.44° C | 48% | 1005.9 hPa | 0 mm | - | - | - |
| 1777549700 | 19.44° C | 48% | 1005.8 hPa | 0 mm | - | - | - |
| 1777549099 | 18.89° C | 49% | 1006 hPa | 0 mm | - | - | - |
| 1777548499 | 18.89° C | 48% | 1005.9 hPa | 0 mm | - | - | - |
| 1777547899 | 19.44° C | 48% | 1006.1 hPa | 0 mm | - | - | - |
| 1777547298 | 19.44° C | 49% | 1006.1 hPa | 0 mm | - | - | - |
| 1777546698 | 18.89° C | 50% | 1006.1 hPa | 0 mm | - | - | - |
| 1777546098 | 18.89° C | 50% | 1006 hPa | 0 mm | - | - | - |
| 1777545498 | 18.89° C | 51% | 1006 hPa | 0 mm | - | - | - |
| 1777544899 | 18.33° C | 53% | 1006.1 hPa | 0 mm | - | - | - |
| 1777544298 | 18.89° C | 54% | 1006.1 hPa | 0 mm | - | - | - |
| 1777543701 | 18.33° C | 56% | 1006.3 hPa | 0 mm | - | - | - |
| 1777543097 | 18.33° C | 56% | 1006.4 hPa | 0 mm | - | - | - |
| 1777542498 | 18.33° C | 56% | 1006.6 hPa | 0 mm | - | - | - |
| 1777541897 | 17.78° C | 55% | 1006.4 hPa | 0 mm | - | - | - |
| 1777541298 | 17.78° C | 57% | 1006.4 hPa | 0 mm | - | - | - |
| 1777540698 | 16.67° C | 60% | 1006.4 hPa | 0 mm | - | - | - |
| 1777540100 | 16.67° C | 60% | 1006.5 hPa | 0 mm | - | - | - |
| 1777539500 | 17.22° C | 59% | 1006.5 hPa | 0 mm | - | - | - |
| 1777538899 | 17.22° C | 59% | 1006.3 hPa | 0 mm | - | - | - |
| 1777538301 | 17.22° C | 61% | 1006.1 hPa | 0 mm | - | - | - |
| 1777537699 | 17.22° C | 61% | 1006 hPa | 0 mm | - | - | - |
* Rain latest hour (hover to see other rain measurements)
** Current wind speed in m/s (hover to see current wind gust speed)